PST,Max TemperatureF,Mean TemperatureF,Min TemperatureF,Max Dew PointF,MeanDew PointF,Min DewpointF,Max Humidity, Mean Humidity, Min Humidity, Max Sea Level PressureIn, Mean Sea Level PressureIn, Min Sea Level PressureIn, Max VisibilityMiles, Mean VisibilityMiles, Min VisibilityMiles, Max Wind SpeedMPH, Mean Wind SpeedMPH, Max Gust SpeedMPH,PrecipitationIn, CloudCover, Events, WindDirDegrees
2013-2-1,55,38,21,33,26,19,96,73,42,30.31,30.19,30.14,10,10,6,8,2,,0.00,1,,100
2013-2-2,46,34,23,32,26,19,88,74,54,30.41,30.23,30.17,10,10,9,5,1,,0.00,3,,76
2013-2-3,54,36,18,32,22,16,93,80,37,30.27,30.18,30.08,10,6,0,8,2,,0.00,2,Fog,209
2013-2-4,59,40,21,27,22,17,88,60,24,30.20,30.05,29.97,10,10,10,14,4,20,0.00,3,,148
2013-2-5,60,40,21,24,18,11,78,44,18,30.03,29.91,29.81,10,10,10,14,5,30,0.00,4,,196
2013-2-6,51,35,19,27,17,12,75,50,23,30.11,30.00,29.94,10,10,10,7,4,,0.00,1,,163
2013-2-7,53,36,19,21,12,2,68,38,12,29.93,29.83,29.75,10,10,9,25,7,34,0.00,4,,270
2013-2-8,37,29,21,25,19,15,78,58,48,29.84,29.79,29.74,10,10,4,21,11,30,0.00,6,Snow,327
2013-2-9,42,30,18,16,13,9,81,49,29,29.99,29.91,29.83,10,10,10,14,8,22,0.00,3,,309
2013-2-10,45,34,24,23,15,10,66,48,27,30.07,29.97,29.94,10,10,8,21,9,26,0.00,5,,6
2013-2-11,45,28,10,14,9,5,80,50,24,30.18,30.10,30.04,10,10,10,8,4,,0.00,1,,164
2013-2-12,51,34,16,18,12,6,65,46,26,30.32,30.21,30.17,10,10,10,7,2,,0.00,3,,91
2013-2-13,54,36,19,22,17,11,74,52,29,30.37,30.22,30.16,10,10,10,9,4,137,0.00,0,,156
2013-2-14,54,36,19,26,20,13,85,57,34,30.37,30.27,30.19,10,10,10,12,4,,0.00,1,,32
2013-2-15,57,37,17,26,21,12,88,57,29,30.48,30.30,30.22,10,10,10,9,3,63,0.00,0,,130
2013-2-16,59,39,19,25,18,13,92,48,16,30.30,30.10,29.94,10,10,10,6,3,,0.00,3,,167
2013-2-17,52,36,19,23,14,4,68,43,19,30.06,29.95,29.91,10,10,5,16,8,22,0.00,0,,9
2013-2-18,53,34,15,14,10,2,61,39,21,29.97,29.83,29.68,10,10,10,9,2,,0.00,0,,85
2013-2-19,46,37,28,24,17,12,59,44,24,29.68,29.58,29.49,10,10,10,17,7,22,0.00,6,,310
2013-2-20,45,34,23,20,12,4,74,45,19,29.86,29.78,29.61,10,10,9,15,10,22,0.00,2,,340
2013-2-21,45,30,14,14,9,2,62,43,25,30.02,29.95,29.85,10,10,10,8,2,,0.00,4,,312
2013-2-22,50,34,19,21,15,9,68,44,27,30.17,30.02,29.91,10,10,10,10,3,,0.05,5,,159
2013-2-23,45,33,18,32,17,7,86,51,24,30.14,30.01,29.79,10,9,1,29,14,36,0.00,4,Rain-Snow,343
2013-2-24,43,28,12,15,9,4,84,49,25,30.34,30.17,30.13,10,10,10,7,4,,0.00,1,,161
2013-2-25,55,37,19,13,8,2,57,36,18,30.18,30.05,29.98,10,10,10,25,8,31,0.00,2,,197
2013-2-26,44,30,16,13,5,0,58,38,19,30.29,30.16,30.09,10,10,10,9,5,,0.00,2,,323
2013-2-27,55,32,10,15,5,1,64,36,13,30.36,30.21,30.16,10,10,10,9,4,,0.00,2,,105
2013-2-28,62,44,26,25,16,5,54,35,22,30.39,30.28,30.21,10,10,10,9,5,,0.00,3,,176